DLA2CA EDDF-LIPQ

Flight info

Callsign DLA2CA
Flight time 1h 1m
Altitude 35000
Route CINDY8S CINDY Z74 LAMPU DCT NOMBO Y161 MAH DCT VAVOR/N0396F330 DCT RADIZ DCT URAVA P125 LUPIN
Aircraft E190/M-SDE2E3GIJ1RWY/LB1

Departure

Time 2026-04-16 10:48
Airport Frankfurt Main Airport (EDDF)

Arrival

Time 2026-04-16 11:50
Airport Trieste Airport (LIPQ)
Time Latitude Longitude Altitude Speed Heading
2026-04-16 09:54 50.04891 8.59585 368 ft 0 kts 297°
2026-04-16 10:40 50.04882 8.59612 368 ft 4 kts 297°
2026-04-16 10:40 50.04870 8.59649 369 ft 4 kts 281°
2026-04-16 10:41 50.04871 8.59686 369 ft 3 kts 249°
2026-04-16 10:41 50.04866 8.59665 369 ft 4 kts 249°
2026-04-16 10:41 50.04862 8.59648 369 ft 1 kts 249°
2026-04-16 10:45 50.04859 8.59635 369 ft 4 kts 249°
2026-04-16 10:45 50.04847 8.59568 369 ft 8 kts 262°
2026-04-16 10:45 50.04857 8.59469 368 ft 11 kts 287°
2026-04-16 10:45 50.04864 8.59343 367 ft 13 kts 253°
2026-04-16 10:46 50.04830 8.59200 367 ft 15 kts 249°
2026-04-16 10:46 50.04791 8.59037 369 ft 17 kts 251°
2026-04-16 10:46 50.04753 8.58873 370 ft 15 kts 249°
2026-04-16 10:46 50.04706 8.58770 370 ft 10 kts 202°
2026-04-16 10:47 50.04642 8.58756 369 ft 10 kts 187°
2026-04-16 10:47 50.04577 8.58704 370 ft 11 kts 218°
2026-04-16 10:47 50.04509 8.58620 369 ft 14 kts 218°
2026-04-16 10:47 50.04476 8.58539 369 ft 0 kts 249°
2026-04-16 10:48 50.04451 8.58437 368 ft 40 kts 249°
2026-04-16 10:48 50.04255 8.57615 361 ft 120 kts 249°
2026-04-16 10:48 50.03902 8.56115 624 ft 163 kts 250°
2026-04-16 10:48 50.03482 8.54371 1360 ft 179 kts 250°
2026-04-16 10:49 50.03031 8.52491 2076 ft 190 kts 250°
2026-04-16 10:49 50.02481 8.50591 2796 ft 197 kts 235°
2026-04-16 10:49 50.01435 8.49148 3424 ft 208 kts 210°
2026-04-16 10:49 50.00030 8.48574 4031 ft 218 kts 181°
2026-04-16 10:50 49.98535 8.49079 4718 ft 225 kts 156°
2026-04-16 10:50 49.97302 8.50608 5507 ft 232 kts 126°
2026-04-16 10:50 49.96544 8.52821 6385 ft 233 kts 115°
2026-04-16 10:50 49.95877 8.55212 6896 ft 252 kts 117°
2026-04-16 10:51 49.94970 8.57678 7282 ft 273 kts 123°
2026-04-16 10:51 49.94350 8.59421 7600 ft 284 kts 113°
2026-04-16 10:51 49.93938 8.62482 8339 ft 290 kts 96°
2026-04-16 10:51 49.93708 8.65600 9116 ft 293 kts 105°
2026-04-16 10:52 49.92830 8.68448 9907 ft 295 kts 122°
2026-04-16 10:52 49.91744 8.71131 10527 ft 305 kts 124°
2026-04-16 10:52 49.90401 8.73776 10903 ft 320 kts 134°
2026-04-16 10:52 49.88810 8.76260 11481 ft 328 kts 136°
2026-04-16 10:53 49.87198 8.78795 12175 ft 332 kts 136°
2026-04-16 10:53 49.85589 8.81400 12834 ft 336 kts 135°
2026-04-16 10:53 49.83975 8.84047 13503 ft 340 kts 135°
2026-04-16 10:53 49.82344 8.86734 14149 ft 344 kts 135°
2026-04-16 10:54 49.80694 8.89457 14758 ft 349 kts 135°
2026-04-16 10:54 49.79021 8.92211 15393 ft 353 kts 135°
2026-04-16 10:54 49.77332 8.94996 15988 ft 357 kts 135°
2026-04-16 10:54 49.75618 8.97813 16588 ft 361 kts 135°
2026-04-16 10:55 49.73888 9.00655 17206 ft 364 kts 135°
2026-04-16 10:55 49.72142 9.03522 17800 ft 368 kts 135°
2026-04-16 10:55 49.70377 9.06418 18379 ft 372 kts 135°
2026-04-16 10:55 49.68613 9.09306 18971 ft 376 kts 135°
2026-04-16 10:56 49.66805 9.12259 19586 ft 380 kts 135°
2026-04-16 10:56 49.64981 9.15234 20187 ft 384 kts 136°
2026-04-16 10:56 49.63134 9.18238 20781 ft 387 kts 136°
2026-04-16 10:56 49.61274 9.21269 21362 ft 391 kts 135°
2026-04-16 10:57 49.59401 9.24324 21905 ft 394 kts 136°
2026-04-16 10:57 49.57504 9.27404 22403 ft 398 kts 136°
2026-04-16 10:57 49.55586 9.30515 22896 ft 401 kts 136°
2026-04-16 10:57 49.53649 9.33645 23371 ft 404 kts 136°
2026-04-16 10:58 49.51705 9.36781 23839 ft 407 kts 136°
2026-04-16 10:58 49.49739 9.39949 24267 ft 411 kts 136°
2026-04-16 10:58 49.47762 9.43133 24738 ft 413 kts 136°
2026-04-16 10:58 49.45799 9.46293 25161 ft 415 kts 136°
2026-04-16 10:59 49.43792 9.49517 25586 ft 418 kts 136°
2026-04-16 10:59 49.41774 9.52752 25978 ft 420 kts 136°
2026-04-16 10:59 49.39748 9.55998 26410 ft 421 kts 136°
2026-04-16 10:59 49.37682 9.59299 26401 ft 435 kts 136°
2026-04-16 11:00 49.35552 9.62691 26390 ft 448 kts 136°
2026-04-16 11:00 49.33361 9.66175 26229 ft 456 kts 136°
2026-04-16 11:00 49.31154 9.69686 26241 ft 460 kts 136°
2026-04-16 11:00 49.28925 9.73229 26245 ft 462 kts 136°
2026-04-16 11:01 49.26692 9.76774 26243 ft 462 kts 136°
2026-04-16 11:01 49.24452 9.80322 26261 ft 463 kts 136°
2026-04-16 11:01 49.22224 9.83848 26249 ft 455 kts 136°
2026-04-16 11:01 49.20091 9.87226 26877 ft 441 kts 136°
2026-04-16 11:02 49.17966 9.90581 27471 ft 437 kts 137°
2026-04-16 11:02 49.15849 9.93915 27929 ft 436 kts 137°
2026-04-16 11:02 49.13734 9.97239 28314 ft 437 kts 137°
2026-04-16 11:02 49.11615 10.00563 28688 ft 438 kts 137°
2026-04-16 11:03 49.09484 10.03902 29038 ft 439 kts 137°
2026-04-16 11:03 49.07349 10.07247 29409 ft 440 kts 137°
2026-04-16 11:03 49.02958 10.13763 30172 ft 439 kts 141°
2026-04-16 11:04 49.00712 10.16897 30617 ft 437 kts 141°
2026-04-16 11:04 48.98473 10.20039 31021 ft 436 kts 141°
2026-04-16 11:04 48.96273 10.23136 31385 ft 435 kts 141°
2026-04-16 11:04 48.94061 10.26263 31773 ft 433 kts 141°
2026-04-16 11:05 48.91825 10.29411 32138 ft 432 kts 141°
2026-04-16 11:05 48.89648 10.32472 32458 ft 431 kts 141°
2026-04-16 11:05 48.87443 10.35568 32773 ft 431 kts 141°
2026-04-16 11:05 48.85246 10.38649 33102 ft 430 kts 141°
2026-04-16 11:06 48.83054 10.41722 33434 ft 429 kts 141°
2026-04-16 11:06 48.80915 10.44877 33746 ft 429 kts 137°
2026-04-16 11:06 48.78879 10.48201 34012 ft 430 kts 136°
2026-04-16 11:06 48.76856 10.51522 34307 ft 429 kts 137°
2026-04-16 11:07 48.74813 10.54829 34560 ft 429 kts 137°
2026-04-16 11:07 48.72768 10.58107 34831 ft 428 kts 137°
2026-04-16 11:07 48.70723 10.61381 35050 ft 428 kts 137°
2026-04-16 11:07 48.68684 10.64650 35369 ft 419 kts 137°
2026-04-16 11:08 48.66671 10.67872 35365 ft 423 kts 137°
2026-04-16 11:08 48.62606 10.74332 35342 ft 428 kts 137°
2026-04-16 11:09 48.58497 10.80840 35275 ft 427 kts 137°
2026-04-16 11:09 48.54415 10.87369 35268 ft 428 kts 137°
2026-04-16 11:10 48.50335 10.93896 35259 ft 427 kts 137°
2026-04-16 11:10 48.46228 11.00374 35269 ft 427 kts 138°
2026-04-16 11:11 48.42090 11.06800 35257 ft 427 kts 138°
2026-04-16 11:11 48.37956 11.13223 35269 ft 427 kts 138°
2026-04-16 11:12 48.33820 11.19631 35277 ft 427 kts 138°
2026-04-16 11:12 48.29684 11.26034 35270 ft 426 kts 138°
2026-04-16 11:13 48.25669 11.32604 35281 ft 429 kts 132°
2026-04-16 11:13 48.22043 11.39727 35254 ft 430 kts 131°
2026-04-16 11:14 48.18431 11.46857 35262 ft 429 kts 131°
2026-04-16 11:14 48.14826 11.53912 35272 ft 429 kts 131°
2026-04-16 11:15 48.11191 11.60999 35260 ft 429 kts 131°
2026-04-16 11:15 48.07555 11.68066 35272 ft 429 kts 131°
2026-04-16 11:16 48.03919 11.75114 35259 ft 427 kts 131°
2026-04-16 11:16 48.00283 11.82147 35271 ft 428 kts 131°
2026-04-16 11:17 47.96639 11.89175 35263 ft 428 kts 131°
2026-04-16 11:17 47.92991 11.96193 35256 ft 428 kts 131°
2026-04-16 11:18 47.89365 12.03149 35250 ft 427 kts 131°
2026-04-16 11:18 47.85712 12.10141 35250 ft 428 kts 131°
2026-04-16 11:19 47.82055 12.17124 35266 ft 428 kts 131°
2026-04-16 11:19 47.78395 12.24095 35251 ft 427 kts 131°
2026-04-16 11:20 47.74734 12.31048 35260 ft 427 kts 131°
2026-04-16 11:20 47.71068 12.37994 35250 ft 427 kts 131°
2026-04-16 11:21 47.67406 12.44921 35250 ft 426 kts 131°
2026-04-16 11:21 47.63722 12.51812 35254 ft 425 kts 136°
2026-04-16 11:21 47.61551 12.54715 35269 ft 418 kts 149°
2026-04-16 11:22 47.59092 12.56986 35305 ft 416 kts 154°
2026-04-16 11:22 47.54049 12.61189 35265 ft 415 kts 154°
2026-04-16 11:23 47.49018 12.65398 35247 ft 415 kts 154°
2026-04-16 11:23 47.44020 12.69587 35250 ft 416 kts 154°
2026-04-16 11:24 47.38993 12.73804 35237 ft 416 kts 154°
2026-04-16 11:24 47.33955 12.78018 35251 ft 416 kts 154°
2026-04-16 11:25 47.28925 12.82218 35240 ft 416 kts 154°
2026-04-16 11:25 47.23889 12.86405 35232 ft 416 kts 154°
2026-04-16 11:26 47.18846 12.90595 35235 ft 416 kts 153°
2026-04-16 11:26 47.13813 12.94766 35224 ft 415 kts 153°
2026-04-16 11:27 47.08796 12.98914 35222 ft 417 kts 153°
2026-04-16 11:27 47.06233 13.01032 35036 ft 421 kts 153°
2026-04-16 11:27 47.03713 13.03117 34735 ft 419 kts 153°
2026-04-16 11:27 47.01181 13.05210 34311 ft 420 kts 153°
2026-04-16 11:28 46.98619 13.07327 33704 ft 422 kts 153°
2026-04-16 11:28 46.96062 13.09435 33112 ft 422 kts 153°
2026-04-16 11:28 46.93497 13.11529 32561 ft 421 kts 153°
2026-04-16 11:28 46.90939 13.13613 32006 ft 420 kts 152°
2026-04-16 11:29 46.88382 13.15694 31441 ft 422 kts 152°
2026-04-16 11:29 46.85816 13.17785 30844 ft 423 kts 152°
2026-04-16 11:29 46.83237 13.19881 30288 ft 425 kts 152°
2026-04-16 11:29 46.80645 13.21988 29709 ft 426 kts 152°
2026-04-16 11:30 46.78049 13.24101 29147 ft 428 kts 152°
2026-04-16 11:30 46.75449 13.26211 28584 ft 427 kts 152°
2026-04-16 11:30 46.72863 13.28311 27999 ft 424 kts 152°
2026-04-16 11:30 46.70294 13.30391 27439 ft 419 kts 152°
2026-04-16 11:31 46.67758 13.32440 26891 ft 415 kts 152°
2026-04-16 11:31 46.65248 13.34475 26337 ft 411 kts 151°
2026-04-16 11:31 46.62757 13.36493 25790 ft 407 kts 151°
2026-04-16 11:31 46.60286 13.38485 25258 ft 405 kts 151°
2026-04-16 11:32 46.57835 13.40462 24731 ft 401 kts 151°
2026-04-16 11:32 46.55406 13.42424 24201 ft 398 kts 151°
2026-04-16 11:32 46.52988 13.44375 23668 ft 395 kts 151°
2026-04-16 11:32 46.50629 13.46277 23148 ft 391 kts 151°
2026-04-16 11:33 46.48254 13.48188 22643 ft 388 kts 151°
2026-04-16 11:33 46.45902 13.50076 22149 ft 385 kts 151°
2026-04-16 11:33 46.43531 13.51864 21643 ft 382 kts 158°
2026-04-16 11:33 46.40974 13.52773 21133 ft 378 kts 177°
2026-04-16 11:34 46.38380 13.52432 20674 ft 372 kts 192°
2026-04-16 11:34 46.35858 13.51622 20123 ft 371 kts 194°
2026-04-16 11:34 46.33355 13.50777 19637 ft 367 kts 194°
2026-04-16 11:34 46.30875 13.49987 19152 ft 363 kts 193°
2026-04-16 11:35 46.28413 13.49231 18666 ft 360 kts 193°
2026-04-16 11:35 46.25970 13.48500 18183 ft 357 kts 193°
2026-04-16 11:35 46.23548 13.47792 17714 ft 353 kts 193°
2026-04-16 11:35 46.21145 13.47099 17246 ft 351 kts 192°
2026-04-16 11:36 46.18758 13.46416 16773 ft 349 kts 192°
2026-04-16 11:36 46.16385 13.45730 16303 ft 347 kts 192°
2026-04-16 11:36 46.14026 13.45047 15845 ft 344 kts 192°
2026-04-16 11:36 46.11685 13.44374 15383 ft 342 kts 192°
2026-04-16 11:37 46.09362 13.43706 14928 ft 339 kts 192°
2026-04-16 11:37 46.07064 13.43046 14484 ft 332 kts 192°
2026-04-16 11:37 46.04823 13.42401 14031 ft 325 kts 192°
2026-04-16 11:37 46.02630 13.41771 13623 ft 317 kts 192°
2026-04-16 11:38 46.00487 13.41155 13198 ft 311 kts 192°
2026-04-16 11:38 45.98384 13.40546 12786 ft 306 kts 192°
2026-04-16 11:38 45.96316 13.39938 12368 ft 301 kts 192°
2026-04-16 11:38 45.94310 13.39344 11982 ft 296 kts 192°
2026-04-16 11:39 45.92303 13.38717 11601 ft 294 kts 192°
2026-04-16 11:39 45.90309 13.38090 11178 ft 292 kts 192°
2026-04-16 11:39 45.88342 13.37460 10811 ft 288 kts 192°
2026-04-16 11:39 45.86401 13.36826 10432 ft 284 kts 192°
2026-04-16 11:40 45.84489 13.36191 10084 ft 280 kts 192°
2026-04-16 11:40 45.82613 13.35563 9770 ft 275 kts 192°
2026-04-16 11:40 45.80737 13.34926 9418 ft 280 kts 192°
2026-04-16 11:40 45.79487 13.34499 9191 ft 278 kts 192°
2026-04-16 11:41 45.77616 13.33852 8794 ft 277 kts 192°
2026-04-16 11:41 45.75739 13.33200 8300 ft 278 kts 192°
2026-04-16 11:41 45.73851 13.32545 7809 ft 280 kts 192°
2026-04-16 11:41 45.71455 13.31183 7124 ft 284 kts 218°
2026-04-16 11:42 45.70227 13.29006 6621 ft 285 kts 245°
2026-04-16 11:42 45.69864 13.27169 6295 ft 284 kts 263°
2026-04-16 11:42 45.69788 13.24352 5819 ft 283 kts 270°
2026-04-16 11:42 45.69795 13.21611 5286 ft 269 kts 278°
2026-04-16 11:43 45.70415 13.19190 4768 ft 255 kts 307°
2026-04-16 11:43 45.71715 13.17655 4264 ft 242 kts 339°
2026-04-16 11:43 45.73331 13.17252 3773 ft 233 kts
2026-04-16 11:43 45.74908 13.17208 3526 ft 224 kts 359°
2026-04-16 11:44 45.76473 13.17145 3294 ft 227 kts 359°
2026-04-16 11:44 45.78053 13.17094 3047 ft 227 kts 359°
2026-04-16 11:44 45.79616 13.17037 3063 ft 221 kts 359°
2026-04-16 11:44 45.81158 13.17324 3052 ft 222 kts 25°
2026-04-16 11:45 45.82276 13.18713 3036 ft 211 kts 60°
2026-04-16 11:45 45.82909 13.20571 3053 ft 209 kts 76°
2026-04-16 11:45 45.82941 13.22603 3167 ft 201 kts 96°
2026-04-16 11:45 45.82825 13.24588 2838 ft 203 kts 90°
2026-04-16 11:46 45.82870 13.26583 2547 ft 195 kts 88°
2026-04-16 11:46 45.82877 13.28473 2292 ft 184 kts 91°
2026-04-16 11:46 45.82852 13.30261 2052 ft 175 kts 90°
2026-04-16 11:46 45.82849 13.31916 1838 ft 162 kts 91°
2026-04-16 11:47 45.82847 13.33487 1621 ft 152 kts 91°
2026-04-16 11:47 45.82838 13.34966 1425 ft 144 kts 92°
2026-04-16 11:47 45.82832 13.36352 1227 ft 133 kts 92°
2026-04-16 11:47 45.82829 13.37635 1062 ft 126 kts 92°
2026-04-16 11:48 45.82822 13.38887 932 ft 126 kts 92°
2026-04-16 11:48 45.82824 13.40150 778 ft 128 kts 92°
2026-04-16 11:48 45.82819 13.41454 599 ft 133 kts 93°
2026-04-16 11:48 45.82810 13.42784 401 ft 134 kts 92°
2026-04-16 11:49 45.82807 13.44139 212 ft 137 kts 92°
2026-04-16 11:49 45.82797 13.45480 49 ft 131 kts 91°
2026-04-16 11:49 45.82787 13.46609 43 ft 90 kts 90°
2026-04-16 11:49 45.82782 13.47286 47 ft 52 kts 91°
2026-04-16 11:50 45.82768 13.47638 43 ft 22 kts 123°
2026-04-16 11:50 45.82649 13.47783 44 ft 23 kts 140°
2026-04-16 11:50 45.82522 13.47937 44 ft 24 kts 140°
2026-04-16 11:50 45.82412 13.48072 43 ft 19 kts 140°
2026-04-16 11:51 45.82326 13.48176 44 ft 13 kts 140°
2026-04-16 11:51 45.82298 13.48209 44 ft 0 kts 140°
2026-04-16 11:51 45.82292 13.48217 44 ft 3 kts 140°
2026-04-16 11:51 45.82264 13.48260 41 ft 8 kts 119°
2026-04-16 11:52 45.82260 13.48347 44 ft 10 kts 82°
2026-04-16 11:52 45.82271 13.48445 42 ft 7 kts 95°
2026-04-16 11:52 45.82230 13.48474 44 ft 6 kts 170°
2026-04-16 11:52 45.82201 13.48482 44 ft 1 kts 170°
2026-04-16 11:53 45.82197 13.48483 44 ft 0 kts 170°